Year,Month,Day,Hour,Minute,Value (Times are PST for windgust in km/hr)
2018,12,19,00,00,6.40
2018,12,19,00,01,8.10
2018,12,19,00,02,6.40
2018,12,19,00,03,1.60
2018,12,19,00,04,6.40
2018,12,19,00,05,8.10
2018,12,19,00,06,6.40
2018,12,19,00,07,4.80
2018,12,19,00,08,6.40
2018,12,19,00,09,6.40
2018,12,19,00,10,4.80
2018,12,19,00,11,9.60
2018,12,19,00,12,9.60
2018,12,19,00,13,11.30
2018,12,19,00,14,19.30
2018,12,19,00,15,9.60
2018,12,19,00,16,8.10
2018,12,19,00,17,20.90
2018,12,19,00,18,16.10
2018,12,19,00,19,11.30
2018,12,19,00,20,9.60
2018,12,19,00,21,3.20
2018,12,19,00,22,1.60
2018,12,19,00,23,16.10
2018,12,19,00,24,12.90
2018,12,19,00,25,9.60
2018,12,19,00,26,11.30
2018,12,19,00,27,16.10
2018,12,19,00,28,9.60
2018,12,19,00,29,19.30
2018,12,19,00,30,19.30
2018,12,19,00,31,14.50
2018,12,19,00,32,11.30
2018,12,19,00,33,9.60
2018,12,19,00,34,17.70
2018,12,19,00,35,14.50
2018,12,19,00,36,16.10
2018,12,19,00,37,12.90
2018,12,19,00,38,14.50
2018,12,19,00,39,9.60
2018,12,19,00,40,8.10
2018,12,19,00,41,4.80
2018,12,19,00,42,3.20
2018,12,19,00,43,6.40
2018,12,19,00,44,14.50
2018,12,19,00,45,14.50
2018,12,19,00,46,6.40
2018,12,19,00,48,11.30
2018,12,19,00,49,9.60
2018,12,19,00,50,9.60
2018,12,19,00,51,6.40
2018,12,19,00,52,6.40
2018,12,19,00,53,4.80
2018,12,19,00,54,4.80
2018,12,19,00,55,11.30
2018,12,19,00,56,17.70
2018,12,19,00,57,14.50
2018,12,19,00,58,8.10
2018,12,19,00,59,11.30
2018,12,19,01,00,16.10
2018,12,19,01,01,11.30
2018,12,19,01,02,9.60
2018,12,19,01,03,11.30
2018,12,19,01,04,16.10
2018,12,19,01,05,17.70
2018,12,19,01,06,16.10
2018,12,19,01,07,20.90
2018,12,19,01,08,11.30
2018,12,19,01,09,9.60
2018,12,19,01,10,8.10
2018,12,19,01,11,9.60
2018,12,19,01,12,11.30
2018,12,19,01,13,11.30
2018,12,19,01,14,8.10
2018,12,19,01,15,3.20
2018,12,19,01,16,12.90
2018,12,19,01,17,9.60
2018,12,19,01,18,12.90
2018,12,19,01,19,14.50
2018,12,19,01,20,8.10
2018,12,19,01,21,4.80
2018,12,19,01,22,11.30
2018,12,19,01,23,8.10
2018,12,19,01,24,6.40
2018,12,19,01,25,4.80
2018,12,19,01,26,8.10
2018,12,19,01,27,8.10
2018,12,19,01,28,4.80
2018,12,19,01,29,8.10
2018,12,19,01,30,9.60
2018,12,19,01,31,4.80
2018,12,19,01,32,4.80
2018,12,19,01,33,6.40
2018,12,19,01,34,4.80
2018,12,19,01,35,3.20
2018,12,19,01,36,8.10
2018,12,19,01,37,16.10
2018,12,19,01,38,9.60
2018,12,19,01,39,6.40
2018,12,19,01,40,11.30
2018,12,19,01,41,11.30
2018,12,19,01,42,3.20
2018,12,19,01,43,3.20
2018,12,19,01,44,12.90
2018,12,19,01,45,11.30
2018,12,19,01,46,4.80
2018,12,19,01,47,17.70
2018,12,19,01,48,8.10
2018,12,19,01,49,19.30
2018,12,19,01,50,16.10
2018,12,19,01,51,9.60
2018,12,19,01,52,11.30
2018,12,19,01,53,16.10
2018,12,19,01,54,9.60
2018,12,19,01,55,16.10
2018,12,19,01,56,12.90
2018,12,19,01,57,11.30
2018,12,19,01,58,9.60
2018,12,19,01,59,8.10
2018,12,19,02,00,16.10
2018,12,19,02,01,6.40
2018,12,19,02,02,6.40
2018,12,19,02,03,6.40
2018,12,19,02,04,17.70
2018,12,19,02,05,17.70
2018,12,19,02,06,11.30
2018,12,19,02,07,14.50
2018,12,19,02,08,19.30
2018,12,19,02,09,11.30
2018,12,19,02,10,11.30
2018,12,19,02,11,9.60
2018,12,19,02,12,24.20
2018,12,19,02,13,11.30
2018,12,19,02,14,9.60
2018,12,19,02,15,6.40
2018,12,19,02,16,8.10
2018,12,19,02,17,14.50
2018,12,19,02,18,14.50
2018,12,19,02,19,17.70
2018,12,19,02,20,16.10
2018,12,19,02,21,9.60
2018,12,19,02,22,11.30
2018,12,19,02,23,6.40
2018,12,19,02,24,20.90
2018,12,19,02,25,8.10
2018,12,19,02,26,8.10
2018,12,19,02,27,9.60
2018,12,19,02,28,9.60
2018,12,19,02,29,9.60
2018,12,19,02,30,19.30
2018,12,19,02,31,17.70
2018,12,19,02,32,27.40
2018,12,19,02,33,27.40
2018,12,19,02,34,11.30
2018,12,19,02,35,14.50
2018,12,19,02,36,20.90
2018,12,19,02,37,8.10
2018,12,19,02,38,9.60
2018,12,19,02,39,35.40
2018,12,19,02,40,25.70
2018,12,19,02,41,24.20
2018,12,19,02,42,25.70
2018,12,19,02,43,17.70
2018,12,19,02,44,20.90
2018,12,19,02,45,25.70
2018,12,19,02,46,29.00
2018,12,19,02,47,25.70
2018,12,19,02,48,24.20
2018,12,19,02,49,27.40
2018,12,19,02,50,25.70
2018,12,19,02,51,27.40
2018,12,19,02,52,33.80
2018,12,19,02,53,33.80
2018,12,19,02,54,25.70
2018,12,19,02,55,30.60
2018,12,19,02,56,25.70
2018,12,19,02,57,24.20
2018,12,19,02,58,22.50
2018,12,19,02,59,16.10
2018,12,19,03,00,17.70
2018,12,19,03,01,9.60
2018,12,19,03,02,9.60
2018,12,19,03,03,17.70
2018,12,19,03,04,19.30
2018,12,19,03,05,20.90
2018,12,19,03,06,11.30
2018,12,19,03,07,17.70
2018,12,19,03,08,17.70
2018,12,19,03,09,14.50
2018,12,19,03,10,19.30
2018,12,19,03,11,11.30
2018,12,19,03,12,9.60
2018,12,19,03,13,9.60
2018,12,19,03,14,11.30
2018,12,19,03,15,9.60
2018,12,19,03,16,25.70
2018,12,19,03,17,22.50
2018,12,19,03,18,9.60
2018,12,19,03,19,19.30
2018,12,19,03,20,19.30
2018,12,19,03,21,8.10
2018,12,19,03,22,17.70
2018,12,19,03,23,24.20
2018,12,19,03,24,16.10
2018,12,19,03,25,16.10
2018,12,19,03,26,12.90
2018,12,19,03,27,20.90
2018,12,19,03,28,17.70
2018,12,19,03,29,9.60
2018,12,19,03,30,16.10
2018,12,19,03,31,19.30
2018,12,19,03,32,20.90
2018,12,19,03,33,24.20
2018,12,19,03,34,24.20
2018,12,19,03,35,22.50
2018,12,19,03,36,20.90
2018,12,19,03,37,20.90
2018,12,19,03,38,9.60
2018,12,19,03,39,12.90
2018,12,19,03,40,17.70
2018,12,19,03,41,17.70
2018,12,19,03,42,22.50
2018,12,19,03,43,9.60
2018,12,19,03,44,9.60
2018,12,19,03,45,16.10
2018,12,19,03,46,8.10
2018,12,19,03,47,11.30
2018,12,19,03,48,19.30
2018,12,19,03,49,25.70
2018,12,19,03,50,33.80
2018,12,19,03,51,19.30
2018,12,19,03,52,20.90
2018,12,19,03,53,22.50
2018,12,19,03,54,14.50
2018,12,19,03,55,14.50
2018,12,19,03,56,14.50
2018,12,19,03,57,17.70
2018,12,19,03,58,9.60
2018,12,19,03,59,11.30
2018,12,19,04,00,14.50
2018,12,19,04,01,6.40
2018,12,19,04,02,8.10
2018,12,19,04,03,14.50
2018,12,19,04,04,9.60
2018,12,19,04,05,19.30
2018,12,19,04,06,11.30
2018,12,19,04,07,9.60
2018,12,19,04,08,9.60
2018,12,19,04,09,4.80
2018,12,19,04,10,4.80
2018,12,19,04,11,8.10
2018,12,19,04,12,6.40
2018,12,19,04,13,4.80
2018,12,19,04,14,6.40
2018,12,19,04,15,9.60
2018,12,19,04,16,4.80
2018,12,19,04,17,8.10
2018,12,19,04,18,4.80
2018,12,19,04,19,4.80
2018,12,19,04,20,4.80
2018,12,19,04,21,4.80
2018,12,19,04,22,16.10
2018,12,19,04,23,11.30
2018,12,19,04,24,6.40
2018,12,19,04,25,11.30
2018,12,19,04,26,8.10
2018,12,19,04,27,3.20
2018,12,19,04,28,6.40
2018,12,19,04,29,8.10
2018,12,19,04,30,11.30
2018,12,19,04,31,6.40
2018,12,19,04,32,14.50
2018,12,19,04,33,6.40
2018,12,19,04,34,8.10
2018,12,19,04,35,6.40
2018,12,19,04,36,6.40
2018,12,19,04,37,8.10
2018,12,19,04,38,8.10
2018,12,19,04,39,14.50
2018,12,19,04,40,6.40
2018,12,19,04,41,6.40
2018,12,19,04,42,8.10
2018,12,19,04,43,8.10
2018,12,19,04,44,6.40
2018,12,19,04,45,8.10
2018,12,19,04,46,8.10
2018,12,19,04,47,14.50
2018,12,19,04,48,11.30
2018,12,19,04,49,8.10
2018,12,19,04,50,6.40
2018,12,19,04,51,11.30
2018,12,19,04,52,11.30
2018,12,19,04,53,19.30
2018,12,19,04,54,19.30
2018,12,19,04,55,19.30
2018,12,19,04,56,11.30
2018,12,19,04,57,9.60
2018,12,19,04,58,9.60
2018,12,19,04,59,14.50
2018,12,19,05,00,11.30
2018,12,19,05,01,4.80
2018,12,19,05,02,6.40
2018,12,19,05,03,11.30
2018,12,19,05,04,11.30
2018,12,19,05,05,11.30
2018,12,19,05,06,8.10
2018,12,19,05,07,11.30
2018,12,19,05,08,6.40
2018,12,19,05,09,11.30
2018,12,19,05,10,11.30
2018,12,19,05,11,16.10
2018,12,19,05,12,14.50
2018,12,19,05,13,14.50
2018,12,19,05,14,3.20
2018,12,19,05,15,3.20
2018,12,19,05,16,9.60
2018,12,19,05,17,8.10
2018,12,19,05,18,8.10
2018,12,19,05,19,4.80
2018,12,19,05,20,4.80
2018,12,19,05,21,6.40
2018,12,19,05,22,3.20
2018,12,19,05,23,3.20
2018,12,19,05,24,1.60
2018,12,19,05,25,4.80
2018,12,19,05,26,4.80
2018,12,19,05,28,1.60
2018,12,19,05,29,1.60
2018,12,19,05,35,1.60
2018,12,19,05,36,1.60
2018,12,19,05,39,1.60
2018,12,19,05,40,1.60
2018,12,19,05,41,3.20
2018,12,19,05,42,1.60
2018,12,19,05,45,3.20
2018,12,19,05,47,3.20
2018,12,19,05,48,4.80
2018,12,19,05,49,6.40
2018,12,19,05,50,8.10
2018,12,19,05,51,8.10
2018,12,19,05,52,4.80
2018,12,19,05,53,8.10
2018,12,19,05,54,8.10
2018,12,19,05,55,11.30
2018,12,19,05,56,9.60
2018,12,19,05,57,8.10
2018,12,19,05,58,17.70
2018,12,19,05,59,17.70
2018,12,19,06,00,6.40
2018,12,19,06,01,6.40
2018,12,19,06,02,11.30
2018,12,19,06,03,9.60
2018,12,19,06,04,11.30
2018,12,19,06,05,11.30
2018,12,19,06,06,16.10
2018,12,19,06,07,6.40
2018,12,19,06,08,8.10
2018,12,19,06,09,8.10
2018,12,19,06,10,8.10
2018,12,19,06,11,9.60
2018,12,19,06,12,8.10
2018,12,19,06,13,6.40
2018,12,19,06,14,4.80
2018,12,19,06,15,9.60
2018,12,19,06,16,3.20
2018,12,19,06,17,9.60
2018,12,19,06,18,4.80
2018,12,19,06,19,6.40
2018,12,19,06,20,4.80
2018,12,19,06,21,4.80
2018,12,19,06,22,4.80
2018,12,19,06,23,6.40
2018,12,19,06,24,6.40
2018,12,19,06,25,3.20
2018,12,19,06,26,3.20
2018,12,19,06,27,3.20
2018,12,19,06,28,1.60
2018,12,19,06,29,4.80
2018,12,19,06,30,3.20
2018,12,19,06,31,1.60
2018,12,19,06,33,9.60
2018,12,19,06,34,8.10
2018,12,19,06,35,1.60
2018,12,19,06,36,1.60
2018,12,19,06,37,1.60
2018,12,19,06,38,1.60
2018,12,19,06,43,1.60
2018,12,19,06,46,1.60
2018,12,19,06,47,1.60
2018,12,19,06,49,1.60
2018,12,19,06,50,1.60
2018,12,19,06,51,3.20
2018,12,19,06,52,1.60
2018,12,19,06,56,1.60
2018,12,19,06,57,1.60
2018,12,19,07,00,1.60
2018,12,19,07,01,1.60
2018,12,19,07,02,1.60
2018,12,19,07,03,1.60
2018,12,19,07,04,1.60
2018,12,19,07,05,3.20
2018,12,19,07,06,1.60
2018,12,19,07,07,1.60
2018,12,19,07,08,1.60
2018,12,19,07,09,1.60
2018,12,19,07,12,1.60
2018,12,19,07,13,1.60
2018,12,19,07,14,3.20
2018,12,19,07,15,1.60
2018,12,19,07,16,1.60
2018,12,19,07,17,1.60
2018,12,19,07,18,1.60
2018,12,19,07,24,3.20
2018,12,19,07,25,1.60
2018,12,19,07,26,1.60
2018,12,19,07,28,1.60
2018,12,19,07,29,1.60
2018,12,19,07,30,1.60
2018,12,19,07,31,4.80
2018,12,19,07,32,11.30
2018,12,19,07,33,19.30
2018,12,19,07,34,14.50
2018,12,19,07,35,6.40
2018,12,19,07,36,1.60
2018,12,19,07,37,9.60
2018,12,19,07,38,11.30
2018,12,19,07,39,17.70
2018,12,19,07,40,22.50
2018,12,19,07,41,14.50
2018,12,19,07,42,22.50
2018,12,19,07,43,11.30
2018,12,19,07,44,16.10
2018,12,19,07,45,14.50
2018,12,19,07,46,8.10
2018,12,19,07,47,8.10
2018,12,19,07,48,9.60
2018,12,19,07,49,8.10
2018,12,19,07,50,11.30
2018,12,19,07,51,9.60
2018,12,19,07,52,14.50
2018,12,19,07,53,6.40
2018,12,19,07,54,19.30
2018,12,19,07,55,12.90
2018,12,19,07,56,16.10
2018,12,19,07,57,8.10
2018,12,19,07,58,14.50
2018,12,19,07,59,11.30
2018,12,19,08,00,8.10
2018,12,19,08,01,8.10
2018,12,19,08,02,8.10
2018,12,19,08,03,17.70
2018,12,19,08,04,14.50
2018,12,19,08,05,9.60
2018,12,19,08,06,8.10
2018,12,19,08,07,4.80
2018,12,19,08,08,8.10
2018,12,19,08,09,3.20
2018,12,19,08,10,6.40
2018,12,19,08,11,8.10
2018,12,19,08,12,8.10
2018,12,19,08,13,4.80
2018,12,19,08,14,6.40
2018,12,19,08,15,4.80
2018,12,19,08,16,4.80
2018,12,19,08,17,6.40
2018,12,19,08,18,3.20
2018,12,19,08,19,1.60
2018,12,19,08,20,3.20
2018,12,19,08,21,1.60
2018,12,19,08,22,3.20
2018,12,19,08,23,1.60
2018,12,19,08,24,1.60
2018,12,19,08,25,1.60
2018,12,19,08,28,1.60
2018,12,19,08,29,1.60
2018,12,19,08,30,4.80
2018,12,19,08,31,1.60
2018,12,19,08,32,1.60
2018,12,19,08,33,4.80
2018,12,19,08,34,4.80
2018,12,19,08,35,3.20
2018,12,19,08,36,6.40
2018,12,19,08,37,4.80
2018,12,19,08,38,1.60
2018,12,19,08,39,1.60
2018,12,19,08,40,1.60
2018,12,19,08,41,3.20
2018,12,19,08,42,3.20
2018,12,19,08,43,4.80
2018,12,19,08,44,6.40
2018,12,19,08,45,4.80
2018,12,19,08,46,11.30
2018,12,19,08,47,8.10
2018,12,19,08,48,4.80
2018,12,19,08,49,4.80
2018,12,19,08,50,9.60
2018,12,19,08,51,8.10
2018,12,19,08,52,1.60
2018,12,19,08,53,3.20
2018,12,19,08,54,8.10
2018,12,19,08,55,9.60
2018,12,19,08,56,3.20
2018,12,19,08,57,3.20
2018,12,19,08,58,3.20
2018,12,19,08,59,4.80
2018,12,19,09,00,4.80
2018,12,19,09,01,4.80
2018,12,19,09,02,4.80
2018,12,19,09,03,14.50
2018,12,19,09,04,6.40
2018,12,19,09,05,11.30
2018,12,19,09,06,11.30
2018,12,19,09,07,12.90
2018,12,19,09,08,8.10
2018,12,19,09,09,20.90
2018,12,19,09,10,14.50
2018,12,19,09,11,16.10
2018,12,19,09,12,8.10
2018,12,19,09,13,22.50
2018,12,19,09,14,24.20
2018,12,19,09,15,6.40
2018,12,19,09,16,8.10
2018,12,19,09,17,8.10
2018,12,19,09,18,8.10
2018,12,19,09,19,12.90
2018,12,19,09,20,9.60
2018,12,19,09,21,6.40
2018,12,19,09,22,3.20
2018,12,19,09,23,6.40
2018,12,19,09,24,3.20
2018,12,19,09,25,8.10
2018,12,19,09,26,6.40
2018,12,19,09,27,6.40
2018,12,19,09,28,4.80
2018,12,19,09,29,4.80
2018,12,19,09,30,1.60
2018,12,19,09,31,1.60
2018,12,19,09,32,1.60
2018,12,19,09,33,1.60
2018,12,19,09,34,3.20
2018,12,19,09,35,1.60
2018,12,19,09,36,1.60
2018,12,19,09,37,1.60
2018,12,19,09,39,1.60
2018,12,19,09,40,1.60
2018,12,19,09,41,3.20
2018,12,19,09,42,4.80
2018,12,19,09,43,6.40
2018,12,19,09,46,1.60
2018,12,19,09,52,1.60
2018,12,19,09,53,1.60
2018,12,19,09,54,1.60
2018,12,19,09,55,1.60
2018,12,19,09,56,1.60
2018,12,19,09,57,1.60
2018,12,19,10,12,4.80
2018,12,19,10,13,3.20
2018,12,19,10,14,3.20
2018,12,19,10,15,6.40
2018,12,19,10,16,4.80
2018,12,19,10,17,4.80
2018,12,19,10,18,4.80
2018,12,19,10,19,6.40
2018,12,19,10,20,4.80
2018,12,19,10,21,4.80
2018,12,19,10,22,4.80
2018,12,19,10,23,4.80
2018,12,19,10,24,4.80
2018,12,19,10,25,4.80
2018,12,19,10,26,6.40
2018,12,19,10,27,8.10
2018,12,19,10,28,8.10
2018,12,19,10,29,9.60
2018,12,19,10,30,9.60
2018,12,19,10,31,9.60
2018,12,19,10,32,8.10
2018,12,19,10,33,6.40
2018,12,19,10,34,6.40
2018,12,19,10,35,3.20
2018,12,19,10,36,4.80
2018,12,19,10,37,1.60
2018,12,19,10,38,1.60
2018,12,19,10,43,1.60
2018,12,19,10,44,1.60
2018,12,19,10,45,1.60
2018,12,19,10,46,3.20
2018,12,19,10,47,3.20
2018,12,19,10,48,3.20
2018,12,19,10,49,3.20
2018,12,19,10,54,1.60
2018,12,19,10,57,1.60
2018,12,19,10,58,3.20
2018,12,19,10,59,3.20
2018,12,19,11,00,1.60
2018,12,19,11,01,1.60
2018,12,19,11,02,3.20
2018,12,19,11,03,3.20
2018,12,19,11,04,3.20
2018,12,19,11,05,3.20
2018,12,19,11,06,3.20
2018,12,19,11,07,3.20
2018,12,19,11,08,1.60
2018,12,19,11,09,1.60
2018,12,19,11,10,3.20
2018,12,19,11,11,3.20
2018,12,19,11,12,3.20
2018,12,19,11,13,1.60
2018,12,19,11,15,1.60
2018,12,19,11,16,1.60
2018,12,19,11,17,1.60
2018,12,19,11,24,1.60
2018,12,19,11,26,1.60
2018,12,19,11,34,3.20
2018,12,19,11,35,1.60
2018,12,19,11,36,3.20
2018,12,19,11,37,3.20
2018,12,19,11,38,1.60
2018,12,19,11,50,1.60
2018,12,19,11,51,1.60
2018,12,19,11,52,1.60
2018,12,19,11,53,1.60
2018,12,19,11,54,1.60
2018,12,19,11,55,1.60
2018,12,19,11,56,1.60
2018,12,19,11,57,1.60
2018,12,19,11,58,1.60
2018,12,19,11,59,1.60
2018,12,19,12,00,1.60
2018,12,19,12,01,1.60
2018,12,19,12,02,1.60
2018,12,19,12,03,1.60
2018,12,19,12,04,3.20
2018,12,19,12,05,3.20
2018,12,19,12,06,3.20
2018,12,19,12,07,1.60
2018,12,19,12,11,1.60
2018,12,19,12,12,1.60
2018,12,19,12,21,1.60
2018,12,19,12,22,1.60
2018,12,19,12,24,1.60
2018,12,19,12,25,3.20
2018,12,19,12,26,3.20
2018,12,19,12,27,3.20
2018,12,19,12,28,3.20
2018,12,19,12,29,1.60
2018,12,19,12,30,3.20
2018,12,19,12,31,3.20
2018,12,19,12,32,1.60
2018,12,19,12,33,1.60
2018,12,19,12,34,3.20
2018,12,19,12,35,1.60
2018,12,19,12,36,1.60
2018,12,19,12,37,1.60
2018,12,19,12,38,1.60
2018,12,19,12,40,3.20
2018,12,19,12,41,1.60
2018,12,19,12,42,3.20
2018,12,19,12,43,4.80
2018,12,19,12,44,3.20
2018,12,19,12,45,3.20
2018,12,19,12,46,3.20
2018,12,19,12,47,3.20
2018,12,19,12,48,3.20
2018,12,19,12,49,3.20
2018,12,19,12,50,3.20
2018,12,19,12,51,3.20
2018,12,19,12,52,4.80
2018,12,19,12,53,1.60
2018,12,19,12,54,3.20
2018,12,19,12,55,1.60
2018,12,19,12,56,1.60
2018,12,19,12,57,3.20
2018,12,19,12,58,3.20
2018,12,19,12,59,3.20
2018,12,19,13,00,1.60
2018,12,19,13,01,1.60
2018,12,19,13,02,1.60
2018,12,19,13,03,3.20
2018,12,19,13,04,3.20
2018,12,19,13,05,1.60
2018,12,19,13,06,1.60
2018,12,19,13,07,3.20
2018,12,19,13,08,1.60
2018,12,19,13,09,1.60
2018,12,19,13,13,1.60
2018,12,19,13,18,3.20
2018,12,19,13,19,3.20
2018,12,19,13,20,4.80
2018,12,19,13,21,3.20
2018,12,19,13,22,3.20
2018,12,19,13,23,3.20
2018,12,19,13,24,1.60
2018,12,19,13,25,1.60
2018,12,19,13,26,3.20
2018,12,19,13,27,3.20
2018,12,19,13,28,3.20
2018,12,19,13,29,1.60
2018,12,19,13,30,1.60
2018,12,19,13,31,1.60
2018,12,19,13,32,3.20
2018,12,19,13,33,3.20
2018,12,19,13,34,3.20
2018,12,19,13,35,3.20
2018,12,19,13,36,3.20
2018,12,19,13,37,3.20
2018,12,19,13,38,1.60
2018,12,19,13,39,1.60
2018,12,19,13,40,1.60
2018,12,19,13,41,1.60
2018,12,19,13,42,3.20
2018,12,19,13,43,1.60
2018,12,19,13,44,3.20
2018,12,19,13,45,1.60
2018,12,19,13,46,1.60
2018,12,19,13,47,1.60
2018,12,19,13,48,3.20
2018,12,19,13,49,1.60
2018,12,19,13,50,3.20
2018,12,19,13,51,1.60
2018,12,19,13,52,3.20
2018,12,19,13,53,3.20
2018,12,19,13,55,3.20
2018,12,19,13,56,1.60
2018,12,19,13,57,1.60
2018,12,19,13,58,1.60
2018,12,19,13,59,3.20
2018,12,19,14,00,3.20
2018,12,19,14,01,1.60
2018,12,19,14,02,1.60
2018,12,19,14,03,1.60
2018,12,19,14,04,3.20
2018,12,19,14,05,1.60
2018,12,19,14,06,1.60
2018,12,19,14,07,1.60
2018,12,19,14,09,1.60
2018,12,19,14,11,1.60
2018,12,19,14,50,1.60
2018,12,19,15,13,1.60
2018,12,19,15,14,1.60
2018,12,19,15,15,3.20
2018,12,19,15,16,1.60
2018,12,19,15,20,1.60
2018,12,19,15,21,1.60
2018,12,19,15,22,1.60
2018,12,19,15,23,1.60
2018,12,19,15,24,1.60
2018,12,19,15,25,3.20
2018,12,19,15,26,3.20
2018,12,19,15,27,1.60
2018,12,19,15,28,3.20
2018,12,19,15,29,3.20
2018,12,19,15,30,3.20
2018,12,19,15,31,1.60
2018,12,19,15,32,3.20
2018,12,19,15,33,3.20
2018,12,19,15,34,4.80
2018,12,19,15,35,6.40
2018,12,19,15,36,6.40
2018,12,19,15,37,4.80
2018,12,19,15,38,6.40
2018,12,19,15,39,3.20
2018,12,19,15,40,6.40
2018,12,19,15,41,6.40
2018,12,19,15,42,8.10
2018,12,19,15,43,8.10
2018,12,19,15,44,8.10
2018,12,19,15,45,4.80
2018,12,19,15,46,6.40
2018,12,19,15,47,6.40
2018,12,19,15,48,6.40
2018,12,19,15,49,9.60
2018,12,19,15,50,8.10
2018,12,19,15,51,8.10
2018,12,19,15,52,8.10
2018,12,19,15,53,9.60
2018,12,19,15,54,12.90
2018,12,19,15,55,9.60
2018,12,19,15,56,16.10
2018,12,19,15,57,9.60
2018,12,19,15,58,9.60
2018,12,19,15,59,9.60
2018,12,19,16,00,11.30
2018,12,19,16,01,8.10
2018,12,19,16,02,14.50
2018,12,19,16,03,14.50
2018,12,19,16,04,12.90
2018,12,19,16,05,11.30
2018,12,19,16,06,16.10
2018,12,19,16,07,14.50
2018,12,19,16,08,14.50
2018,12,19,16,09,11.30
2018,12,19,16,10,9.60
2018,12,19,16,11,11.30
2018,12,19,16,12,11.30
2018,12,19,16,13,9.60
2018,12,19,16,14,11.30
2018,12,19,16,15,11.30
2018,12,19,16,16,14.50
2018,12,19,16,17,9.60
2018,12,19,16,18,9.60
2018,12,19,16,19,9.60
2018,12,19,16,20,11.30
2018,12,19,16,21,11.30
2018,12,19,16,22,6.40
2018,12,19,16,23,6.40
2018,12,19,16,24,8.10
2018,12,19,16,25,4.80
2018,12,19,16,26,8.10
2018,12,19,16,27,6.40
2018,12,19,16,28,6.40
2018,12,19,16,29,8.10
2018,12,19,16,30,8.10
2018,12,19,16,31,8.10
2018,12,19,16,32,6.40
2018,12,19,16,33,6.40
2018,12,19,16,34,16.10
2018,12,19,16,35,11.30
2018,12,19,16,36,9.60
2018,12,19,16,37,6.40
2018,12,19,16,38,6.40
2018,12,19,16,39,11.30
2018,12,19,16,40,9.60
2018,12,19,16,41,9.60
2018,12,19,16,42,8.10
2018,12,19,16,43,6.40
2018,12,19,16,44,8.10
2018,12,19,16,45,6.40
2018,12,19,16,46,6.40
2018,12,19,16,47,4.80
2018,12,19,16,48,4.80
2018,12,19,16,49,6.40
2018,12,19,16,50,4.80
2018,12,19,16,51,4.80
2018,12,19,16,52,3.20
2018,12,19,16,53,1.60
2018,12,19,16,54,1.60
2018,12,19,16,55,1.60
2018,12,19,16,56,1.60
2018,12,19,16,57,1.60
2018,12,19,16,58,1.60
2018,12,19,16,59,1.60
2018,12,19,17,00,1.60
2018,12,19,17,01,1.60
2018,12,19,17,09,1.60
2018,12,19,17,13,3.20
2018,12,19,17,14,3.20
2018,12,19,17,15,1.60
2018,12,19,17,16,1.60
2018,12,19,17,17,1.60
2018,12,19,17,31,1.60
2018,12,19,17,32,4.80
2018,12,19,17,33,4.80
2018,12,19,17,34,1.60
2018,12,19,17,35,3.20
2018,12,19,17,36,1.60
2018,12,19,17,37,1.60
2018,12,19,17,38,1.60
2018,12,19,17,39,3.20
2018,12,19,17,40,1.60
2018,12,19,17,41,1.60
2018,12,19,17,42,4.80
2018,12,19,17,43,6.40
2018,12,19,17,44,14.50
2018,12,19,17,45,8.10
2018,12,19,17,46,8.10
2018,12,19,17,47,16.10
2018,12,19,17,48,19.30
2018,12,19,17,49,17.70
2018,12,19,17,50,16.10
2018,12,19,17,51,14.50
2018,12,19,17,52,16.10
2018,12,19,17,53,14.50
2018,12,19,17,54,11.30
2018,12,19,17,55,11.30
2018,12,19,17,56,14.50
2018,12,19,17,57,17.70
2018,12,19,17,58,16.10
2018,12,19,17,59,14.50
2018,12,19,18,00,11.30
2018,12,19,18,01,16.10
2018,12,19,18,02,14.50
2018,12,19,18,03,6.40
2018,12,19,18,04,11.30
2018,12,19,18,05,14.50
2018,12,19,18,06,20.90
2018,12,19,18,07,14.50
2018,12,19,18,08,16.10
2018,12,19,18,09,14.50
2018,12,19,18,10,9.60
2018,12,19,18,11,8.10
2018,12,19,18,12,4.80
2018,12,19,18,13,3.20
2018,12,19,18,14,4.80
2018,12,19,18,15,6.40
2018,12,19,18,16,4.80
2018,12,19,18,17,1.60
2018,12,19,18,18,3.20
2018,12,19,18,19,3.20
2018,12,19,18,20,4.80
2018,12,19,18,21,4.80
2018,12,19,18,22,6.40
2018,12,19,18,23,4.80
2018,12,19,18,24,1.60
2018,12,19,18,25,4.80
2018,12,19,18,26,4.80
2018,12,19,18,27,6.40
2018,12,19,18,28,9.60
2018,12,19,18,29,9.60
2018,12,19,18,30,9.60
2018,12,19,18,31,16.10
2018,12,19,18,32,22.50
2018,12,19,18,33,17.70
2018,12,19,18,34,14.50
2018,12,19,18,35,14.50
2018,12,19,18,36,16.10
2018,12,19,18,37,14.50
2018,12,19,18,38,16.10
2018,12,19,18,39,17.70
2018,12,19,18,40,17.70
2018,12,19,18,41,16.10
2018,12,19,18,42,14.50
2018,12,19,18,43,16.10
2018,12,19,18,44,16.10
2018,12,19,18,45,14.50
2018,12,19,18,46,17.70
2018,12,19,18,47,17.70
2018,12,19,18,48,14.50
2018,12,19,18,49,14.50
2018,12,19,18,50,14.50
2018,12,19,18,51,22.50
2018,12,19,18,52,16.10
2018,12,19,18,53,16.10
2018,12,19,18,54,16.10
2018,12,19,18,55,16.10
2018,12,19,18,56,14.50
2018,12,19,18,57,16.10
2018,12,19,18,58,16.10
2018,12,19,18,59,11.30
2018,12,19,19,00,9.60
2018,12,19,19,01,22.50
2018,12,19,19,02,19.30
2018,12,19,19,03,17.70
2018,12,19,19,04,14.50
2018,12,19,19,05,11.30
2018,12,19,19,06,9.60
2018,12,19,19,07,9.60
2018,12,19,19,08,9.60
2018,12,19,19,09,11.30
2018,12,19,19,10,8.10
2018,12,19,19,11,16.10
2018,12,19,19,12,14.50
2018,12,19,19,13,4.80
2018,12,19,19,14,16.10
2018,12,19,19,15,16.10
2018,12,19,19,16,8.10
2018,12,19,19,17,6.40
2018,12,19,19,18,8.10
2018,12,19,19,19,3.20
2018,12,19,19,20,1.60
2018,12,19,19,21,3.20
2018,12,19,19,22,3.20
2018,12,19,19,23,1.60
2018,12,19,19,24,1.60
2018,12,19,19,25,1.60
2018,12,19,19,26,3.20
2018,12,19,19,27,1.60
2018,12,19,19,29,1.60
2018,12,19,19,30,1.60
2018,12,19,19,31,3.20
2018,12,19,19,32,3.20
2018,12,19,19,33,3.20
2018,12,19,19,34,1.60
2018,12,19,19,35,3.20
2018,12,19,19,36,3.20
2018,12,19,19,37,1.60
2018,12,19,19,38,4.80
2018,12,19,19,39,4.80
2018,12,19,19,40,4.80
2018,12,19,19,41,3.20
2018,12,19,19,42,6.40
2018,12,19,19,43,4.80
2018,12,19,19,44,1.60
2018,12,19,19,45,4.80
2018,12,19,19,46,3.20
2018,12,19,19,47,3.20
2018,12,19,19,48,3.20
2018,12,19,19,49,1.60
2018,12,19,19,50,1.60
2018,12,19,19,51,1.60
2018,12,19,19,52,3.20
2018,12,19,19,53,8.10
2018,12,19,19,54,8.10
2018,12,19,19,55,3.20
2018,12,19,19,56,3.20
2018,12,19,19,57,8.10
2018,12,19,19,58,16.10
2018,12,19,19,59,8.10
2018,12,19,20,00,6.40
2018,12,19,20,01,8.10
2018,12,19,20,02,4.80
2018,12,19,20,03,6.40
2018,12,19,20,04,6.40
2018,12,19,20,05,19.30
2018,12,19,20,06,35.40
2018,12,19,20,07,25.70
2018,12,19,20,08,6.40
2018,12,19,20,09,11.30
2018,12,19,20,10,16.10
2018,12,19,20,11,20.90
2018,12,19,20,12,16.10
2018,12,19,20,13,9.60
2018,12,19,20,14,17.70
2018,12,19,20,15,17.70
2018,12,19,20,16,4.80
2018,12,19,20,17,8.10
2018,12,19,20,18,8.10
2018,12,19,20,19,9.60
2018,12,19,20,20,4.80
2018,12,19,20,21,1.60
2018,12,19,20,22,20.90
2018,12,19,20,23,17.70
2018,12,19,20,24,6.40
2018,12,19,20,25,6.40
2018,12,19,20,26,17.70
2018,12,19,20,27,16.10
2018,12,19,20,28,9.60
2018,12,19,20,29,9.60
2018,12,19,20,30,14.50
2018,12,19,20,31,12.90
2018,12,19,20,32,16.10
2018,12,19,20,33,9.60
2018,12,19,20,34,20.90
2018,12,19,20,35,24.20
2018,12,19,20,36,27.40
2018,12,19,20,37,20.90
2018,12,19,20,38,14.50
2018,12,19,20,39,11.30
2018,12,19,20,40,22.50
2018,12,19,20,41,11.30
2018,12,19,20,42,14.50
2018,12,19,20,43,14.50
2018,12,19,20,44,16.10
2018,12,19,20,45,9.60
2018,12,19,20,46,11.30
2018,12,19,20,47,8.10
2018,12,19,20,48,17.70
2018,12,19,20,49,16.10
2018,12,19,20,50,16.10
2018,12,19,20,51,11.30
2018,12,19,20,52,22.50
2018,12,19,20,53,29.00
2018,12,19,20,54,29.00
2018,12,19,20,55,24.20
2018,12,19,20,56,29.00
2018,12,19,20,57,19.30
2018,12,19,20,58,14.50
2018,12,19,20,59,16.10
2018,12,19,21,00,20.90
2018,12,19,21,01,20.90
2018,12,19,21,02,22.50
2018,12,19,21,03,20.90
2018,12,19,21,04,24.20
2018,12,19,21,05,25.70
2018,12,19,21,06,19.30
2018,12,19,21,07,27.40
2018,12,19,21,08,24.20
2018,12,19,21,09,20.90
2018,12,19,21,10,22.50
2018,12,19,21,11,29.00
2018,12,19,21,12,29.00
2018,12,19,21,13,19.30